{"data":{"norad_id":60102,"epoch":"2026-09-21T03:29:23.287488Z","epoch_age_seconds":121510,"freshness":"FRESH","line1":"1 60102U 24117M   26264.14540842 -.00000901  00000+0 -15531-4 0  9992","line2":"2 60102  53.1614 206.9830 0001182  83.1829 276.9308 15.34389271126841","mean_motion":15.34389271,"eccentricity":0.0001182,"inclination_deg":53.1614,"raan_deg":206.983,"arg_perigee_deg":83.1829,"mean_anomaly_deg":276.9308,"bstar":-1.5531e-5,"rev_number":12684,"period_min":93.848414298512,"perigee_km":461.92653815628,"apogee_km":463.54372032763,"semimajor_km":6840.872129242,"source":"CELESTRAK","updated_at":"2026-09-22T09:00:49.151876Z"}}